Погода в Баткате

Россия / Томская область     56°32′59″N   83°52′00″E
темп.,
°C
ветер,
м/с
пор.,
м/с
влажн.,
%
обл.,
%
осадки,
мм/ч
давл.,
гПа
погр.,
м
17 октября, вс
вс1701:00+3в11890 0.0 102710
04:00+2в119057 0.0 102710
07:00+1в229246 0.0 102610
10:00+3вюв128222 0.0 102679
13:00+7юв116163 0.0 1025370
16:00+9ююв115370 0.0 1024521
19:00+5ююв226470 0.0 102410
22:00+3ююз22716 0.0 102421
18 октября, пн
пн1801:00+2юз337622 0.0 102431
04:00+1юз3389100 0.0 102437
07:00+1юз349163 0.0 102468
10:00+3юз3786100 0.0 1024190
13:00+7юз466999 0.0 1024464
16:00+9юз57645 0.0 1023765
19:00+5ююз48835 0.0 1024124
22:00+4юз388850 0.0 1024137
19 октября, вт
вт1901:00+3юз369032 0.0 1025108
04:00+2ююз369130 0.0 1025109
07:00+2ююз379195 0.0 1025129
10:00+4ююз4982100 0.0 1025235
13:00+8ююз586496 0.0 1025460
16:00+9ююз586395 0.0 1024521
19:00+6ююз497776 0.0 1024172
22:00+4ююз498118 0.0 1024151
20 октября, ср
ср2001:00+4ююз378273 0.0 1024119
04:00+3ююз35825 0.0 102378
07:00+2ю358510 0.0 102375
10:00+4ю377449 0.0 1022171
13:00+9ю465199 0.0 1020396
16:00+11ю364656 0.0 1018516
19:00+6ююв346288 0.0 101755
22:00+5ю357385 0.0 101686
21 октября, чт
чт2101:00+4ю348077 0.0 101559
04:00+3ю348291 0.0 101563
07:00+2ююв378296 0.0 1014106
10:00+4ююв41071100 0.0 1013217
13:00+9ю584981 0.0 1011357
16:00+11ю4848100 0.0 1010396
19:00+7ю41063100 0.0 1010175
22:00+6ююз4968100 0.0 1010167